This is the latest recevied weather packets stored in our database for station/object K5MGY. If no packets are shown the sender has not sent any weather packets the latest 10 day(s).
| Time | Temp. | Humidity | Pressure | Rain* | Wind** | Luminosity | Snow |
|---|---|---|---|---|---|---|---|
| 1777670519 | 17.78° C | 56% | 1039.5 hPa | 0 mm | - | 71 W/m² | - |
| 1777670215 | 17.78° C | 55% | 1039.5 hPa | 0 mm | - | 71 W/m² | - |
| 1777669610 | 17.78° C | 54% | 1039.5 hPa | 0 mm | - | 95 W/m² | - |
| 1777669307 | 18.33° C | 52% | 1039.7 hPa | 0 mm | - | 105 W/m² | - |
| 1777669003 | 18.33° C | 51% | 1039.6 hPa | 0 mm | - | 140 W/m² | - |
| 1777668397 | 17.78° C | 52% | 1039.7 hPa | 0 mm | - | 214 W/m² | - |
| 1777668093 | 17.78° C | 53% | 1039.6 hPa | 0 mm | - | 190 W/m² | - |
| 1777667790 | 17.78° C | 56% | 1040.1 hPa | 0 mm | - | 121 W/m² | - |
| 1777667184 | 17.78° C | 55% | 1040.2 hPa | 0 mm | - | 158 W/m² | - |
| 1777666881 | 17.78° C | 53% | 1040.2 hPa | 0 mm | - | 142 W/m² | - |
| 1777666274 | 17.22° C | 60% | 1040.5 hPa | 0 mm | - | 155 W/m² | - |
| 1777665971 | 17.22° C | 61% | 1040.5 hPa | 0 mm | - | 105 W/m² | - |
| 1777664151 | 17.22° C | 55% | 1040.5 hPa | 0 mm | - | 77 W/m² | - |
| 1777663545 | 16.67° C | 57% | 1039.4 hPa | 0 mm | - | 135 W/m² | - |
| 1777663243 | 16.67° C | 55% | 1039.1 hPa | 0 mm | - | 92 W/m² | - |
| 1777662940 | 16.67° C | 54% | 1039.1 hPa | 0 mm | - | 53 W/m² | - |
| 1777662638 | 16.67° C | 54% | 1039.5 hPa | 0 mm | - | 77 W/m² | - |
| 1777662333 | 16.67° C | 54% | 1039.6 hPa | 0 mm | - | 88 W/m² | - |
| 1777661725 | 16.67° C | 53% | 1039.7 hPa | 0 mm | - | 102 W/m² | - |
| 1777660812 | 17.22° C | 54% | 1039.9 hPa | 0 mm | - | 92 W/m² | - |
| 1777660510 | 17.22° C | 54% | 1040.2 hPa | 0 mm | - | 106 W/m² | - |
| 1777660206 | 17.22° C | 55% | 1040 hPa | 0 mm | - | 119 W/m² | - |
| 1777659296 | 17.78° C | 52% | 1040.2 hPa | 0 mm | - | 131 W/m² | - |
| 1777658993 | 17.78° C | 55% | 1040.1 hPa | 0 mm | - | 222 W/m² | - |
| 1777656873 | 17.22° C | 57% | 1040.7 hPa | 0 mm | - | 189 W/m² | - |
* Rain latest hour (hover to see other rain measurements)
** Current wind speed in m/s (hover to see current wind gust speed)